STARLINK-1924 (46755 NORAD) Tracking and Keplerian Element Data

This shows tracking and keplerian element data for the satellite.

Feedback or suggestion? Click here.




ElementValue
Catalog46755
NameSTARLINK-1924
Epoch Orbit181
Epoch Day20.91667824
Epoch Year2021
RAAN98.306
Inclination53.0582
Eccentricity0.000143
Argument of Perigee70.461
Mean Anonmoly302.0952
Mean Motion15.06395354
Decay Rate-5.74E-06
L11 46755U 20074S 21020.91667824 -.00000574 00000-0 -19656-4 0 9997
L22 46755 53.0582 98.3060 0001430 70.4610 302.0952 15.06395354 1816

Live tracking and technical data element details for STARLINK-1924 (NORAD 46755). STARLINK-1924 can be tracked NOW for your location showing map with azimuth and elevation plus other details from your city location.

Track the satellite on the map from your city or location and see movement details for azimuth, elevation, latitude, longitude, range, height, and movement on the map or in text.







IsCatalogInMostPopularTable: catalog: 46755, numindb: 35
Update: records affected: 1



GetName: 46755 STARLINK-1924

Hit Count: updated at: Fri, 22 Jan 2021 19:58:22 GMT